| time (UTC) | temp C | wind direction | speed KPH | gust KPH | rain 1hr cm | rain 24hr cm | rain mn cm | humidity % | barometer mb |
| 20260503005204 | 13 | 296 | 9.7 | 14.5 | 0.00 | 0.00 | 0.00 | 88 | 1011.3 |
| 20260503004203 | 13 | 351 | 1.6 | 4.8 | 0.00 | 0.00 | 0.00 | 88 | 1011.4 |
| 20260503003703 | 14 | 272 | 8.0 | 12.9 | 0.00 | 0.00 | 0.00 | 88 | 1011.8 |
| 20260503003204 | 13 | 104 | 1.6 | 4.8 | 0.00 | 0.00 | 0.00 | 88 | 1011.8 |
| 20260503002703 | 13 | 115 | 3.2 | 4.8 | 0.00 | 0.00 | 0.00 | 88 | 1012.0 |
| 20260503002204 | 13 | 113 | 3.2 | 4.8 | 0.00 | 0.00 | 0.00 | 88 | 1012.1 |
| 20260503001704 | 13 | 124 | 3.2 | 4.8 | 0.00 | 0.00 | 0.00 | 88 | 1012.2 |
| 20260503001204 | 13 | 121 | 3.2 | 4.8 | 0.00 | 0.00 | 0.00 | 88 | 1012.3 |
| 20260503000704 | 13 | 97 | 1.6 | 4.8 | 0.00 | 0.00 | 0.00 | 88 | 1012.3 |
| 20260503000204 | 13 | 91 | 1.6 | 4.8 | 0.00 | 0.00 | 0.00 | 88 | 1012.5 |
| 20260502235704 | 13 | 155 | 3.2 | 4.8 | 0.00 | 0.00 | 0.00 | 88 | 1012.7 |
| 20260502235203 | 13 | 149 | 3.2 | 4.8 | 0.00 | 0.00 | 0.00 | 88 | 1012.6 |
| 20260502234704 | 13 | 126 | 3.2 | 4.8 | 0.00 | 0.00 | 0.00 | 88 | 1012.4 |
| 20260502234205 | 13 | 67 | 1.6 | 3.2 | 0.00 | 0.00 | 0.00 | 87 | 1012.3 |
| 20260502233703 | 13 | 63 | 1.6 | 3.2 | 0.00 | 0.00 | 0.00 | 87 | 1012.3 |
| 20260502233204 | 13 | 42 | 1.6 | 3.2 | 0.00 | 0.00 | 0.00 | 87 | 1012.2 |
| 20260502232704 | 13 | 44 | 0.0 | 4.8 | 0.00 | 0.00 | 0.00 | 87 | 1012.1 |
| 20260502232204 | 13 | 17 | 3.2 | 4.8 | 0.00 | 0.00 | 0.00 | 87 | 1012.2 |
| 20260502231704 | 13 | 54 | 1.6 | 4.8 | 0.00 | 0.00 | 0.00 | 87 | 1012.3 |
| 20260502230204 | 14 | 39 | 4.8 | 9.7 | 0.00 | 0.00 | 0.00 | 86 | 1012.5 |
| 20260502225705 | 14 | 46 | 6.4 | 14.5 | 0.00 | 0.00 | 0.00 | 86 | 1012.6 |
| 20260502225204 | 13 | 60 | 4.8 | 9.7 | 0.00 | 0.00 | 0.00 | 86 | 1012.8 |
| 20260502224705 | 13 | 83 | 6.4 | 14.5 | 0.00 | 0.00 | 0.00 | 86 | 1013.0 |
| 20260502223704 | 13 | 96 | 6.4 | 11.3 | 0.00 | 0.00 | 0.00 | 87 | 1013.1 |
| 20260502223204 | 13 | 80 | 4.8 | 9.7 | 0.00 | 0.00 | 0.00 | 86 | 1013.1 |
| 20260502222704 | 13 | 82 | 4.8 | 19.3 | 0.00 | 0.00 | 0.00 | 86 | 1012.9 |
| 20260502222204 | 13 | 112 | 11.3 | 20.9 | 0.00 | 0.00 | 0.00 | 86 | 1013.2 |
| 20260502221704 | 13 | 114 | 4.8 | 11.3 | 0.00 | 0.00 | 0.00 | 85 | 1012.8 |
| 20260502221205 | 13 | 79 | 3.2 | 4.8 | 0.00 | 0.00 | 0.00 | 85 | 1012.6 |
| 20260502220704 | 13 | 69 | 3.2 | 8.0 | 0.00 | 0.00 | 0.00 | 84 | 1012.7 |
| 20260502220205 | 13 | 52 | 3.2 | 4.8 | 0.00 | 0.00 | 0.00 | 84 | 1012.8 |
| 20260502215704 | 13 | 44 | 3.2 | 4.8 | 0.00 | 0.00 | 0.00 | 83 | 1012.8 |
| 20260502215204 | 13 | 48 | 1.6 | 4.8 | 0.00 | 0.00 | 0.00 | 83 | 1012.9 |
| 20260502213704 | 13 | 50 | 1.6 | 4.8 | 0.00 | 0.00 | 0.00 | 82 | 1013.2 |
| 20260502213204 | 13 | 10 | 1.6 | 4.8 | 0.00 | 0.00 | 0.00 | 81 | 1013.1 |
| 20260502212704 | 13 | 40 | 3.2 | 4.8 | 0.00 | 0.00 | 0.00 | 81 | 1013.2 |
| 20260502211204 | 14 | 348 | 3.2 | 4.8 | 0.00 | 0.00 | 0.00 | 78 | 1013.2 |
| 20260502210704 | 14 | 346 | 3.2 | 4.8 | 0.00 | 0.00 | 0.00 | 77 | 1013.2 |
| 20260502210204 | 14 | 335 | 3.2 | 4.8 | 0.00 | 0.00 | 0.00 | 75 | 1013.2 |
| 20260502205704 | 14 | 19 | 1.6 | 4.8 | 0.00 | 0.00 | 0.00 | 74 | 1013.2 |
| 20260502205204 | 14 | 5 | 1.6 | 4.8 | 0.00 | 0.00 | 0.00 | 73 | 1013.2 |
| 20260502204704 | 15 | 332 | 1.6 | 4.8 | 0.00 | 0.00 | 0.00 | 73 | 1013.2 |
| 20260502204204 | 15 | 317 | 1.6 | 4.8 | 0.00 | 0.00 | 0.00 | 72 | 1013.2 |
| 20260502203204 | 15 | 317 | 1.6 | 4.8 | 0.00 | 0.00 | 0.00 | 71 | 1013.3 |
| 20260502202204 | 15 | 324 | 1.6 | 3.2 | 0.00 | 0.00 | 0.00 | 71 | 1013.5 |
| 20260502201704 | 15 | 324 | 1.6 | 3.2 | 0.00 | 0.00 | 0.00 | 71 | 1013.5 |
| 20260502201205 | 16 | 331 | 1.6 | 3.2 | 0.00 | 0.00 | 0.00 | 71 | 1013.6 |
| 20260502200704 | 16 | 319 | 1.6 | 3.2 | 0.00 | 0.00 | 0.00 | 70 | 1013.6 |
| 20260502195702 | 16 | 292 | 1.6 | 4.8 | 0.00 | 0.00 | 0.00 | 70 | 1013.6 |
| 20260502195202 | 16 | 293 | 3.2 | 8.0 | 0.00 | 0.00 | 0.00 | 70 | 1013.6 |
| 20260502194703 | 16 | 293 | 1.6 | 4.8 | 0.00 | 0.00 | 0.00 | 69 | 1013.6 |
| 20260502194202 | 16 | 289 | 3.2 | 4.8 | 0.00 | 0.00 | 0.00 | 69 | 1013.6 |
| 20260502193702 | 16 | 292 | 3.2 | 4.8 | 0.00 | 0.00 | 0.00 | 69 | 1013.5 |
| 20260502193203 | 16 | 307 | 1.6 | 4.8 | 0.00 | 0.00 | 0.00 | 68 | 1013.6 |
| 20260502192702 | 16 | 296 | 1.6 | 4.8 | 0.00 | 0.00 | 0.00 | 68 | 1013.6 |
| 20260502191703 | 17 | 293 | 4.8 | 9.7 | 0.00 | 0.00 | 0.00 | 69 | 1013.5 |
| 20260502191202 | 17 | 305 | 3.2 | 4.8 | 0.00 | 0.00 | 0.00 | 71 | 1013.5 |
| 20260502190702 | 17 | 295 | 4.8 | 8.0 | 0.00 | 0.00 | 0.00 | 72 | 1013.5 |
| 20260502190202 | 17 | 290 | 3.2 | 9.7 | 0.00 | 0.00 | 0.00 | 72 | 1013.5 |
| 20260502185704 | 17 | 302 | 3.2 | 4.8 | 0.00 | 0.00 | 0.00 | 72 | 1013.4 |
| 20260502185203 | 18 | 296 | 3.2 | 4.8 | 0.00 | 0.00 | 0.00 | 73 | 1013.5 |
| 20260502184702 | 18 | 328 | 3.2 | 4.8 | 0.00 | 0.00 | 0.00 | 72 | 1013.5 |
| 20260502184203 | 18 | 303 | 4.8 | 11.3 | 0.00 | 0.00 | 0.00 | 72 | 1013.5 |
| 20260502183702 | 18 | 295 | 4.8 | 9.7 | 0.00 | 0.00 | 0.00 | 72 | 1013.5 |
| 20260502183203 | 18 | 315 | 3.2 | 4.8 | 0.00 | 0.00 | 0.00 | 71 | 1013.5 |
| 20260502182703 | 19 | 281 | 4.8 | 11.3 | 0.00 | 0.00 | 0.00 | 70 | 1013.4 |
| 20260502182203 | 19 | 290 | 6.4 | 11.3 | 0.00 | 0.00 | 0.00 | 69 | 1013.4 |
| 20260502181703 | 19 | 298 | 3.2 | 11.3 | 0.00 | 0.00 | 0.00 | 69 | 1013.5 |
| 20260502181203 | 20 | 288 | 6.4 | 14.5 | 0.00 | 0.00 | 0.00 | 69 | 1013.5 |
| 20260502180702 | 20 | 270 | 4.8 | 11.3 | 0.00 | 0.00 | 0.00 | 70 | 1013.5 |
| 20260502180203 | 20 | 276 | 6.4 | 14.5 | 0.00 | 0.00 | 0.00 | 70 | 1013.5 |
| 20260502170203 | 21 | 283 | 9.7 | 12.9 | 0.00 | 0.00 | 0.00 | 68 | 1013.7 |
| 20260502163703 | 22 | 294 | 8.0 | 16.1 | 0.00 | 0.00 | 0.00 | 66 | 1013.8 |
| 20260502162703 | 22 | 255 | 9.7 | 16.1 | 0.00 | 0.00 | 0.00 | 66 | 1013.9 |
| 20260502162203 | 22 | 288 | 6.4 | 19.3 | 0.00 | 0.00 | 0.00 | 66 | 1013.9 |
| 20260502161703 | 22 | 290 | 12.9 | 19.3 | 0.00 | 0.00 | 0.00 | 65 | 1014.0 |
| 20260502160703 | 23 | 299 | 8.0 | 19.3 | 0.00 | 0.00 | 0.00 | 64 | 1014.0 |
| 20260502160203 | 23 | 254 | 12.9 | 20.9 | 0.00 | 0.00 | 0.00 | 63 | 1014.1 |
| 20260502152203 | 22 | 265 | 8.0 | 20.9 | 0.00 | 0.00 | 0.00 | 64 | 1014.3 |
| 20260502151703 | 22 | 234 | 8.0 | 14.5 | 0.00 | 0.00 | 0.00 | 63 | 1014.4 |
| 20260502151204 | 22 | 289 | 4.8 | 14.5 | 0.00 | 0.00 | 0.00 | 63 | 1014.5 |
| 20260502150703 | 22 | 264 | 8.0 | 19.3 | 0.00 | 0.00 | 0.00 | 63 | 1014.5 |
| 20260502150203 | 23 | 260 | 11.3 | 19.3 | 0.00 | 0.00 | 0.00 | 61 | 1014.6 |
| 20260502130704 | 22 | 261 | 11.3 | 19.3 | 0.00 | 0.00 | 0.00 | 60 | 1015.5 |
| 20260502123704 | 22 | 249 | 12.9 | 20.9 | 0.00 | 0.00 | 0.00 | 57 | 1015.7 |
| 20260502123204 | 22 | 210 | 9.7 | 16.1 | 0.00 | 0.00 | 0.00 | 58 | 1015.7 |
| 20260502122703 | 22 | 250 | 12.9 | 24.1 | 0.00 | 0.00 | 0.00 | 58 | 1015.7 |
| 20260502122204 | 21 | 237 | 14.5 | 22.5 | 0.00 | 0.00 | 0.00 | 58 | 1015.7 |
| 20260502121704 | 22 | 240 | 11.3 | 19.3 | 0.00 | 0.00 | 0.00 | 57 | 1015.8 |
| 20260502121204 | 22 | 261 | 14.5 | 22.5 | 0.00 | 0.00 | 0.00 | 55 | 1015.8 |
| 20260502120705 | 22 | 259 | 11.3 | 19.3 | 0.00 | 0.00 | 0.00 | 53 | 1015.8 |
| 20260502120204 | 23 | 248 | 11.3 | 19.3 | 0.00 | 0.00 | 0.00 | 49 | 1015.7 |
| 20260502115704 | 23 | 237 | 9.7 | 19.3 | 0.00 | 0.00 | 0.00 | 48 | 1015.8 |
| 20260502115206 | 23 | 212 | 9.7 | 19.3 | 0.00 | 0.00 | 0.00 | 46 | 1015.7 |
| 20260502114704 | 23 | 230 | 9.7 | 22.5 | 0.00 | 0.00 | 0.00 | 45 | 1015.8 |
| 20260502114204 | 23 | 239 | 11.3 | 25.7 | 0.00 | 0.00 | 0.00 | 44 | 1015.7 |
| 20260502113704 | 23 | 240 | 8.0 | 16.1 | 0.00 | 0.00 | 0.00 | 45 | 1015.8 |
| 20260502113204 | 22 | 245 | 14.5 | 24.1 | 0.00 | 0.00 | 0.00 | 44 | 1015.9 |
| 20260502112704 | 22 | 255 | 12.9 | 25.7 | 0.00 | 0.00 | 0.00 | 43 | 1016.0 |
| 20260502111704 | 22 | 228 | 11.3 | 19.3 | 0.00 | 0.00 | 0.00 | 42 | 1016.1 |
| 20260502111205 | 22 | 237 | 6.4 | 12.9 | 0.00 | 0.00 | 0.00 | 44 | 1016.0 |
| 20260502110704 | 22 | 243 | 4.8 | 19.3 | 0.00 | 0.00 | 0.00 | 46 | 1016.0 |
| 20260502105702 | 21 | 229 | 8.0 | 14.5 | 0.00 | 0.00 | 0.00 | 48 | 1016.1 |
| 20260502105202 | 21 | 244 | 8.0 | 16.1 | 0.00 | 0.00 | 0.00 | 47 | 1016.1 |
| 20260502104703 | 21 | 215 | 8.0 | 16.1 | 0.00 | 0.00 | 0.00 | 48 | 1016.2 |
| 20260502104202 | 21 | 217 | 8.0 | 19.3 | 0.00 | 0.00 | 0.00 | 47 | 1016.2 |
| 20260502103202 | 21 | 249 | 8.0 | 20.9 | 0.00 | 0.00 | 0.00 | 44 | 1016.2 |
| 20260502102702 | 22 | 223 | 4.8 | 14.5 | 0.00 | 0.00 | 0.00 | 44 | 1016.2 |
| 20260502102203 | 22 | 229 | 8.0 | 19.3 | 0.00 | 0.00 | 0.00 | 45 | 1016.2 |
| 20260502101202 | 21 | 221 | 4.8 | 11.3 | 0.00 | 0.00 | 0.00 | 46 | 1016.3 |
| 20260502100703 | 21 | 197 | 8.0 | 14.5 | 0.00 | 0.00 | 0.00 | 46 | 1016.3 |
| 20260502100202 | 21 | 216 | 4.8 | 9.7 | 0.00 | 0.00 | 0.00 | 48 | 1016.3 |
| 20260502091202 | 21 | 218 | 9.7 | 19.3 | 0.00 | 0.00 | 0.00 | 48 | 1016.5 |
| 20260502090202 | 22 | 200 | 8.0 | 20.9 | 0.00 | 0.00 | 0.00 | 48 | 1016.5 |
| 20260502071203 | 16 | 164 | 3.2 | 16.1 | 0.00 | 0.00 | 0.00 | 57 | 1016.8 |
| 20260502070703 | 16 | 152 | 8.0 | 19.3 | 0.00 | 0.00 | 0.00 | 58 | 1016.8 |
| 20260502070203 | 16 | 159 | 4.8 | 19.3 | 0.00 | 0.00 | 0.00 | 59 | 1016.8 |
| 20260502065703 | 15 | 170 | 8.0 | 16.1 | 0.00 | 0.00 | 0.00 | 61 | 1016.8 |
| 20260502065203 | 15 | 159 | 6.4 | 14.5 | 0.00 | 0.00 | 0.00 | 61 | 1016.8 |
| 20260502064703 | 15 | 171 | 8.0 | 12.9 | 0.00 | 0.00 | 0.00 | 62 | 1016.9 |
| 20260502064203 | 15 | 173 | 4.8 | 14.5 | 0.00 | 0.00 | 0.00 | 63 | 1016.8 |
| 20260502063703 | 14 | 156 | 6.4 | 12.9 | 0.00 | 0.00 | 0.00 | 64 | 1016.8 |
| 20260502063203 | 14 | 149 | 8.0 | 14.5 | 0.00 | 0.00 | 0.00 | 64 | 1016.8 |
| 20260502062703 | 13 | 144 | 6.4 | 14.5 | 0.00 | 0.00 | 0.00 | 64 | 1016.8 |
| 20260502062203 | 13 | 141 | 4.8 | 14.5 | 0.00 | 0.00 | 0.00 | 65 | 1016.8 |
| 20260502061703 | 13 | 158 | 8.0 | 12.9 | 0.00 | 0.00 | 0.00 | 65 | 1016.8 |
| 20260502061203 | 13 | 151 | 6.4 | 12.9 | 0.00 | 0.00 | 0.00 | 66 | 1016.8 |
| 20260502055703 | 12 | 141 | 6.4 | 9.7 | 0.00 | 0.00 | 0.00 | 67 | 1016.8 |
| 20260502055203 | 12 | 133 | 4.8 | 11.3 | 0.00 | 0.00 | 0.00 | 67 | 1016.9 |
| 20260502054704 | 12 | 153 | 4.8 | 11.3 | 0.00 | 0.00 | 0.00 | 68 | 1016.9 |
| 20260502054204 | 12 | 141 | 6.4 | 12.9 | 0.00 | 0.00 | 0.00 | 68 | 1017.0 |
| 20260502053703 | 12 | 148 | 4.8 | 12.9 | 0.00 | 0.00 | 0.00 | 68 | 1017.0 |
| 20260502053204 | 11 | 144 | 4.8 | 12.9 | 0.00 | 0.00 | 0.00 | 68 | 1016.9 |
| 20260502052703 | 11 | 141 | 4.8 | 12.9 | 0.00 | 0.00 | 0.00 | 69 | 1016.9 |
| 20260502052203 | 11 | 156 | 3.2 | 14.5 | 0.00 | 0.00 | 0.00 | 69 | 1016.9 |
| 20260502051703 | 11 | 142 | 6.4 | 14.5 | 0.00 | 0.00 | 0.00 | 69 | 1016.9 |
| 20260502051204 | 11 | 139 | 8.0 | 14.5 | 0.00 | 0.00 | 0.00 | 69 | 1016.9 |
| 20260502050703 | 11 | 137 | 8.0 | 16.1 | 0.00 | 0.00 | 0.00 | 70 | 1017.0 |
| 20260502045703 | 11 | 138 | 4.8 | 11.3 | 0.00 | 0.00 | 0.00 | 71 | 1017.0 |
| 20260502045203 | 10 | 146 | 4.8 | 11.3 | 0.00 | 0.00 | 0.00 | 71 | 1017.0 |
| 20260502044704 | 10 | 136 | 4.8 | 12.9 | 0.00 | 0.00 | 0.00 | 71 | 1017.0 |
| 20260502044203 | 10 | 139 | 8.0 | 12.9 | 0.00 | 0.00 | 0.00 | 71 | 1016.9 |
| 20260502043703 | 10 | 141 | 4.8 | 11.3 | 0.00 | 0.00 | 0.00 | 71 | 1017.0 |
| 20260502043203 | 10 | 145 | 4.8 | 11.3 | 0.00 | 0.00 | 0.00 | 71 | 1017.0 |
| 20260502042703 | 10 | 141 | 4.8 | 12.9 | 0.00 | 0.00 | 0.00 | 71 | 1017.0 |
| 20260502042204 | 10 | 142 | 4.8 | 11.3 | 0.00 | 0.00 | 0.00 | 71 | 1017.0 |
| 20260502041704 | 10 | 145 | 8.0 | 12.9 | 0.00 | 0.00 | 0.00 | 70 | 1017.1 |
| 20260502041203 | 10 | 142 | 6.4 | 9.7 | 0.00 | 0.00 | 0.00 | 71 | 1017.1 |
| 20260502040703 | 10 | 140 | 4.8 | 9.7 | 0.00 | 0.00 | 0.00 | 71 | 1017.2 |
| 20260502040204 | 10 | 146 | 6.4 | 12.9 | 0.00 | 0.00 | 0.00 | 71 | 1017.2 |
| 20260502035703 | 10 | 159 | 4.8 | 12.9 | 0.00 | 0.00 | 0.00 | 71 | 1017.2 |
| 20260502035203 | 10 | 148 | 4.8 | 12.9 | 0.00 | 0.00 | 0.00 | 72 | 1017.3 |
| 20260502034703 | 10 | 146 | 4.8 | 11.3 | 0.00 | 0.00 | 0.00 | 72 | 1017.3 |
| 20260502034204 | 10 | 140 | 4.8 | 11.3 | 0.00 | 0.00 | 0.00 | 72 | 1017.3 |
| 20260502033704 | 10 | 154 | 6.4 | 14.5 | 0.00 | 0.00 | 0.00 | 72 | 1017.4 |
| 20260502032703 | 10 | 158 | 4.8 | 9.7 | 0.00 | 0.00 | 0.00 | 71 | 1017.5 |
| 20260502032204 | 10 | 157 | 3.2 | 8.0 | 0.00 | 0.00 | 0.00 | 71 | 1017.5 |
| 20260502031203 | 10 | 153 | 4.8 | 9.7 | 0.00 | 0.00 | 0.00 | 72 | 1017.5 |
| 20260502030704 | 10 | 154 | 4.8 | 12.9 | 0.00 | 0.00 | 0.00 | 72 | 1017.5 |
| 20260502030203 | 10 | 154 | 4.8 | 9.7 | 0.00 | 0.00 | 0.00 | 72 | 1017.5 |
| 20260502025703 | 10 | 160 | 4.8 | 9.7 | 0.00 | 0.00 | 0.00 | 73 | 1017.5 |
| 20260502025204 | 10 | 147 | 4.8 | 11.3 | 0.00 | 0.00 | 0.00 | 74 | 1017.6 |
| 20260502024704 | 10 | 141 | 4.8 | 9.7 | 0.00 | 0.00 | 0.00 | 74 | 1017.7 |
| 20260502024204 | 10 | 161 | 3.2 | 11.3 | 0.00 | 0.00 | 0.00 | 73 | 1017.7 |
| 20260502023704 | 10 | 159 | 4.8 | 9.7 | 0.00 | 0.00 | 0.00 | 73 | 1017.7 |
| 20260502023203 | 10 | 157 | 3.2 | 4.8 | 0.00 | 0.00 | 0.00 | 73 | 1017.8 |
| 20260502022703 | 10 | 164 | 1.6 | 8.0 | 0.00 | 0.00 | 0.00 | 73 | 1017.8 |
| 20260502022203 | 10 | 157 | 3.2 | 8.0 | 0.00 | 0.00 | 0.00 | 73 | 1017.9 |
| 20260502021704 | 10 | 149 | 4.8 | 8.0 | 0.00 | 0.00 | 0.00 | 74 | 1017.9 |
| 20260502021204 | 10 | 128 | 3.2 | 4.8 | 0.00 | 0.00 | 0.00 | 74 | 1017.9 |
| 20260502020703 | 10 | 125 | 4.8 | 4.8 | 0.00 | 0.00 | 0.00 | 75 | 1017.9 |
| 20260502020203 | 10 | 127 | 3.2 | 9.7 | 0.00 | 0.00 | 0.00 | 75 | 1018.0 |
| 20260502015703 | 10 | 137 | 3.2 | 4.8 | 0.00 | 0.00 | 0.00 | 74 | 1018.0 |
| 20260502014703 | 11 | 142 | 3.2 | 4.8 | 0.00 | 0.00 | 0.00 | 74 | 1018.1 |
| 20260502014204 | 11 | 131 | 3.2 | 4.8 | 0.00 | 0.00 | 0.00 | 73 | 1018.1 |
| 20260502013703 | 11 | 130 | 4.8 | 11.3 | 0.00 | 0.00 | 0.00 | 72 | 1018.1 |
| 20260502013203 | 11 | 135 | 3.2 | 11.3 | 0.00 | 0.00 | 0.00 | 72 | 1018.2 |
| 20260502012703 | 11 | 130 | 4.8 | 11.3 | 0.00 | 0.00 | 0.00 | 72 | 1018.2 |
| 20260502012204 | 11 | 136 | 4.8 | 4.8 | 0.00 | 0.00 | 0.00 | 72 | 1018.3 |
| 20260502011704 | 11 | 134 | 4.8 | 8.0 | 0.00 | 0.00 | 0.00 | 72 | 1018.4 |
| 20260502010704 | 11 | 125 | 8.0 | 11.3 | 0.00 | 0.00 | 0.00 | 73 | 1018.4 |
| 20260502010203 | 11 | 116 | 4.8 | 11.3 | 0.00 | 0.00 | 0.00 | 75 | 1018.6 |
| 20260502005703 | 11 | 128 | 4.8 | 11.3 | 0.00 | 0.00 | 0.00 | 76 | 1018.6 |